Weather reports worldwide

Advertisment
Riga, Latvia (26422): temperature & dewpoint: 13.11.2019 19:00:00 - 19.11.2019 19:00:00 (EET)Riga, Latvia (26422): wind speed & gusts: 13.11.2019 19:00:00 - 19.11.2019 19:00:00 (EET)Riga, Latvia (26422): wind direction: 13.11.2019 19:00:00 - 19.11.2019 19:00:00 (EET)Riga, Latvia (26422): reduced air pressure: 13.11.2019 19:00:00 - 19.11.2019 19:00:00 (EET)Riga, Latvia (26422): visibility: 13.11.2019 19:00:00 - 19.11.2019 19:00:00 (EET)Riga, Latvia (26422): precipitation: 13.11.2019 19:00:00 - 19.11.2019 19:00:00 (EET)
Date & Time tt [°C] td [°C] ff [km/h] ff [kn] fx [km/h] fx [kn] dd ppp [hPa] vv [km] rr [mm]
19.11.2019 19:00:00 - - - - - - - - - -
19.11.2019 18:00:00 6,7 5,0 22 12 32 18 S 1024,3 7 0,0
19.11.2019 17:00:00 6,7 5,1 11 6 31 17 S 1024,1 6 0,0
19.11.2019 16:00:00 6,6 5,2 14 8 32 18 S 1023,8 5 0,0
19.11.2019 15:00:00 6,3 5,3 18 10 29 16 S 1023,6 4,6 0,0
19.11.2019 14:00:00 6,2 5,1 18 10 27 15 SSE 1023,6 4,8 0,0
19.11.2019 13:00:00 6,0 4,8 14 8 29 16 S 1023,4 5 0,0
19.11.2019 12:00:00 5,9 4,5 14 8 32 18 S 1023,0 6 0,0
19.11.2019 11:00:00 5,7 4,1 18 10 32 17 SSE 1022,7 6 0,0
19.11.2019 10:00:00 5,7 4,0 18 10 36 19 S 1022,2 6 0,0
19.11.2019 09:00:00 5,6 4,2 22 12 36 19 S 1021,6 6 0,0
19.11.2019 08:00:00 5,7 4,0 22 12 37 20 SSE 1020,9 7 0,0
19.11.2019 07:00:00 6,1 4,6 18 10 40 21 S 1020,4 6 0,0
19.11.2019 06:00:00 6,5 4,7 25 14 40 21 S 1020,0 7 0,0
19.11.2019 05:00:00 6,6 4,5 22 12 39 21 SSE 1019,6 6 0,0
19.11.2019 04:00:00 7,1 4,2 22 12 50 27 S 1019,4 8 0,0
19.11.2019 03:00:00 7,1 4,6 22 12 50 27 S 1019,4 7 0,0
19.11.2019 02:00:00 7,4 4,6 25 14 44 24 S 1019,0 8 0,0
19.11.2019 01:00:00 7,5 5,0 22 12 40 21 SE 1018,6 9 0,0
19.11.2019 00:00:00 8,3 5,1 22 12 36 19 SE 1018,4 11 0,0
18.11.2019 23:00:00 8,7 5,2 18 10 37 20 SSE 1018,7 13 0,0
18.11.2019 22:00:00 8,9 5,1 22 12 40 21 S 1018,7 13 0,0
18.11.2019 21:00:00 8,9 5,5 14 8 29 16 SE 1018,6 12 0,0
18.11.2019 20:00:00 9,2 5,5 14 8 30 16 SSE 1018,5 12 0,0
18.11.2019 19:00:00 9,4 6,1 14 8 32 18 SE 1018,6 10 0,0
18.11.2019 18:00:00 9,4 6,7 14 8 32 18 SE 1018,7 7 0,0
18.11.2019 17:00:00 9,3 7,0 14 8 29 16 SE 1018,8 8 0,0
18.11.2019 16:00:00 9,3 7,4 14 8 32 18 SE 1019,0 9 0,0
18.11.2019 15:00:00 9,7 7,3 14 8 32 18 SE 1019,2 11 0,0
18.11.2019 14:00:00 9,7 7,2 14 8 27 15 SE 1019,5 9 0,0
18.11.2019 13:00:00 9,7 7,5 14 8 29 16 SE 1019,8 10 0,0
18.11.2019 12:00:00 9,7 7,3 14 8 29 16 SE 1020,3 10 0,0
18.11.2019 11:00:00 9,8 7,3 11 6 26 14 SE 1021,0 9 0,0
18.11.2019 10:00:00 9,5 7,3 11 6 25 14 SE 1021,2 - 0,0
18.11.2019 09:00:00 9,4 7,3 14 8 29 16 E 1021,4 - 0,0
18.11.2019 08:00:00 9,2 7,6 14 8 28 15 ESE 1021,4 8 0,0
18.11.2019 07:00:00 9,0 7,6 14 8 29 16 E 1021,2 - 0,0
18.11.2019 06:00:00 8,9 7,7 14 8 22 12 E 1021,4 - 0,0
18.11.2019 05:00:00 8,9 7,6 11 6 19 10 ESE 1021,7 7 0,0
18.11.2019 04:00:00 8,9 7,7 11 6 25 14 SE 1021,9 - 0,0
18.11.2019 03:00:00 8,7 7,9 14 8 25 14 S 1022,3 5 0,0
18.11.2019 02:00:00 8,7 7,9 14 8 24 13 SSE 1022,6 4,8 0,0
18.11.2019 01:00:00 8,7 8,1 14 8 25 14 S 1022,8 3,4 0,0
18.11.2019 00:00:00 8,5 7,9 11 6 22 12 SE 1022,8 2,3 0,0
17.11.2019 23:00:00 8,6 7,8 11 6 21 12 SSE 1023,1 4,6 0,0
17.11.2019 22:00:00 8,8 7,9 11 6 22 12 SE 1023,0 4,6 0,0
17.11.2019 21:00:00 8,9 8,1 14 8 22 12 SE 1023,0 3,5 0,0
17.11.2019 20:00:00 8,6 7,8 11 6 19 10 SSE 1023,1 3,1 0,0
17.11.2019 19:00:00 8,3 7,1 7 4 22 12 S 1023,0 6 0,0
17.11.2019 18:00:00 8,3 6,4 14 8 22 12 S 1023,2 8 0,0
17.11.2019 17:00:00 8,6 6,5 11 6 19 11 SSE 1022,9 9 0,0
17.11.2019 16:00:00 9,2 6,8 11 6 18 10 S 1023,0 10 0,0
17.11.2019 15:00:00 9,7 7,0 11 6 18 10 S 1022,8 10 0,0
17.11.2019 14:00:00 10,0 7,0 7 4 18 10 S 1022,5 11 0,0
17.11.2019 13:00:00 9,9 6,6 11 6 25 14 S 1022,8 12 0,0
17.11.2019 12:00:00 9,7 7,3 11 6 22 12 S 1022,7 10 0,0
17.11.2019 11:00:00 9,3 7,2 11 6 20 11 S 1022,5 9 0,0
17.11.2019 10:00:00 8,7 7,2 11 6 22 12 S 1021,6 8 0,0
17.11.2019 09:00:00 8,8 7,2 11 6 22 12 S 1020,8 8 0,0
17.11.2019 08:00:00 8,8 7,2 14 8 23 12 S 1020,2 8 0,0
17.11.2019 07:00:00 9,0 7,4 14 8 29 16 S 1019,6 8 0,0
17.11.2019 06:00:00 9,2 7,3 14 8 32 18 S 1019,6 10 0,0
17.11.2019 05:00:00 9,3 7,3 22 12 32 17 S 1018,6 10 0,0
17.11.2019 04:00:00 9,5 7,4 22 12 36 19 S 1018,2 11 0,0
17.11.2019 03:00:00 9,6 7,5 18 10 32 18 S 1017,8 10 0,0
17.11.2019 02:00:00 9,5 7,5 14 8 30 16 S 1017,3 9 0,0
17.11.2019 01:00:00 9,2 7,5 18 10 32 18 S 1016,7 9 0,0
17.11.2019 00:00:00 8,7 7,5 18 10 32 18 S 1016,3 7 0,0
16.11.2019 23:00:00 8,4 7,3 18 10 31 17 SSE 1016,8 6 0,0
16.11.2019 22:00:00 8,1 7,0 14 8 36 19 S 1016,8 6 0,0
16.11.2019 21:00:00 7,7 6,9 22 12 36 19 S 1016,2 4,5 0,0
16.11.2019 20:00:00 7,4 6,7 22 12 35 19 SSE 1016,6 2,8 0,1
16.11.2019 19:00:00 7,0 6,4 22 12 32 18 SE 1016,3 - 0,0
16.11.2019 18:00:00 6,6 6,0 14 8 32 18 SE 1016,7 - 0,0
16.11.2019 17:00:00 6,2 5,5 14 8 31 17 SE 1016,7 2,5 0,0
16.11.2019 16:00:00 6,1 5,4 14 8 32 18 SE 1017,2 - 0,0
16.11.2019 15:00:00 6,0 5,0 11 6 32 18 SE 1017,2 - 0,0
16.11.2019 14:00:00 5,9 4,6 18 10 30 16 SSE 1017,5 4,9 0,0
16.11.2019 13:00:00 5,9 4,5 18 10 32 18 SE 1017,8 6 0,0
16.11.2019 12:00:00 6,2 4,5 18 10 32 18 SE 1018,0 - 0,0
16.11.2019 11:00:00 5,9 4,0 14 8 22 12 SSE 1018,7 8 0,0
16.11.2019 10:00:00 5,6 3,9 11 6 22 12 SE 1018,4 8 0,0
16.11.2019 09:00:00 5,4 3,7 11 6 22 12 SE 1018,6 8 0,0
16.11.2019 08:00:00 5,3 3,6 11 6 22 12 SE 1018,8 8 0,0
16.11.2019 07:00:00 5,3 3,6 11 6 25 14 SE 1018,6 8 0,0
16.11.2019 06:00:00 5,4 3,7 11 6 25 14 SE 1018,6 7 0,0
16.11.2019 05:00:00 5,4 3,8 11 6 23 12 SE 1019,1 7 0,0
16.11.2019 04:00:00 5,7 3,9 11 6 22 12 SE 1019,2 9 0,0
16.11.2019 03:00:00 6,1 3,9 14 8 22 12 SE 1019,8 8 0,0
16.11.2019 02:00:00 6,4 4,2 11 6 19 11 ESE 1019,9 8 0,0
16.11.2019 01:00:00 6,5 4,3 14 8 22 12 SE 1019,9 9 0,0
16.11.2019 00:00:00 6,5 4,3 11 6 22 12 E 1020,7 11 0,0
15.11.2019 23:00:00 6,6 4,7 11 6 20 11 ESE 1021,1 13 0,0
15.11.2019 22:00:00 6,8 4,6 11 6 22 12 E 1021,6 14 0,0
15.11.2019 21:00:00 6,9 4,7 11 6 22 12 E 1021,9 20 0,0
15.11.2019 20:00:00 6,7 4,5 11 6 21 11 E 1022,1 20 0,0
15.11.2019 19:00:00 6,8 4,6 11 6 25 14 E 1022,3 20 0,0
15.11.2019 18:00:00 6,9 4,4 11 6 29 16 E 1022,4 20 0,0
15.11.2019 17:00:00 7,0 4,4 11 6 28 15 E 1022,5 20 0,0
15.11.2019 16:00:00 7,1 4,6 18 10 29 16 E 1022,8 20 0,0
15.11.2019 15:00:00 7,0 4,3 11 6 25 14 E 1022,8 20 0,0
15.11.2019 14:00:00 6,7 4,3 14 8 23 13 E 1023,1 20 0,0
15.11.2019 13:00:00 6,4 4,2 14 8 25 14 E 1023,2 16 0,0
15.11.2019 12:00:00 6,2 3,9 11 6 25 14 E 1023,5 17 0,0
15.11.2019 11:00:00 5,7 3,1 14 8 26 14 E 1023,6 20 0,0
15.11.2019 10:00:00 5,3 3,1 14 8 25 14 E 1023,8 20 0,0
15.11.2019 09:00:00 4,8 3,1 11 6 22 12 NE 1023,9 20 0,0
15.11.2019 08:00:00 4,9 3,2 14 8 23 12 ENE 1023,6 20 0,0
15.11.2019 07:00:00 4,7 3,4 11 6 22 12 NE 1023,2 20 0,0
15.11.2019 06:00:00 5,1 3,8 11 6 22 12 E 1023,2 20 0,0
15.11.2019 05:00:00 3,8 3,2 7 4 15 8 ENE 1023,3 12 0,0
15.11.2019 04:00:00 4,0 3,6 7 4 11 6 NE 1023,2 11 0,0
15.11.2019 03:00:00 4,2 3,8 7 4 11 6 E 1022,8 7 0,0
15.11.2019 02:00:00 - - - - - - - - 8 0,0
15.11.2019 01:00:00 - - - - - - - - - -
15.11.2019 00:00:00 5,1 3,8 4 2 11 6 NE 1021,2 - 0,0
14.11.2019 23:00:00 5,7 4,0 4 2 12 6 NNW 1020,8 20 0,0
14.11.2019 22:00:00 5,8 4,4 7 4 18 10 W 1020,3 - 0,0
14.11.2019 21:00:00 6,4 4,6 11 6 22 12 W 1019,6 - 0,0
14.11.2019 20:00:00 7,2 4,6 11 6 22 12 WNW 1018,6 20 0,0
14.11.2019 19:00:00 8,2 5,0 11 6 32 18 W 1017,4 - 0,0
14.11.2019 18:00:00 9,2 5,0 11 6 32 18 W 1016,2 20 0,0
14.11.2019 17:00:00 10,6 6,1 18 10 32 17 W 1014,8 20 0,0
14.11.2019 16:00:00 11,1 7,8 14 8 32 18 SW 1013,2 20 0,0
14.11.2019 15:00:00 11,5 8,0 14 8 36 19 SW 1012,2 20 0,0
14.11.2019 14:00:00 12,0 9,1 22 12 35 19 SSW 1011,0 13 0,0
14.11.2019 13:00:00 12,1 9,3 18 10 50 27 S 1010,1 8 0,0
14.11.2019 12:00:00 12,4 9,4 22 12 50 27 S 1009,1 10 0,0
14.11.2019 11:00:00 12,5 9,1 25 14 44 24 S 1008,3 10 0,0
14.11.2019 10:00:00 12,1 8,9 25 14 47 25 S 1007,5 10 0,0
14.11.2019 09:00:00 11,7 8,7 25 14 47 25 S 1006,7 9 0,0
14.11.2019 08:00:00 11,7 8,5 25 14 43 23 S 1005,6 9 0,0
14.11.2019 07:00:00 11,3 8,5 22 12 40 21 S 1005,1 9 0,0
14.11.2019 06:00:00 10,8 8,6 22 12 36 19 S 1005,3 8 0,0
14.11.2019 05:00:00 10,8 8,7 18 10 36 20 SSE 1005,2 9 0,4
14.11.2019 04:00:00 11,3 8,5 22 12 40 21 SE 1005,1 11 0,0
14.11.2019 03:00:00 11,2 8,9 14 8 29 16 SE 1005,3 13 0,0
14.11.2019 02:00:00 11,1 9,0 18 10 26 14 SSE 1005,3 14 0,0
14.11.2019 01:00:00 10,5 8,9 11 6 22 12 SE 1005,8 12 0,0
14.11.2019 00:00:00 10,3 9,1 14 8 25 14 S 1006,3 11 0,0
13.11.2019 23:00:00 10,6 9,0 14 8 26 14 S 1006,4 12 0,0
13.11.2019 22:00:00 10,5 9,1 14 8 29 16 S 1006,2 12 0,0
13.11.2019 21:00:00 10,6 9,2 18 10 32 18 S 1006,2 10 0,0
13.11.2019 20:00:00 10,6 9,0 18 10 32 17 S 1005,9 13 0,3
13.11.2019 19:00:00 10,6 8,7 18 10 32 18 S 1005,7 12 0,0

tt = temperature
td = dewpoint
ff = wind speed
fx = gusts
dd = wind direction
ppp = reduced air pressure
vv = visibility
rr = precipitation

Next stations